CZ-6A DEB

Satellite information

Favourite Embed

Satellite Type and Status

DEBRISIN ORBIT

Key statistics

Satellite CZ-6A DEB at a glance.

Uptime

1129

Days in orbit

Revolutions

≈ 14.2

Per day

Orbit

SSO

Sun Synchronous Orbit

Inclination

98.8

Latest

Satellite identification and parameters

Extended collection of information and parameters for CZ-6A DEB.

Object identification

Identified? True

Debris? True

Object name: CZ-6A DEB

International designator: 2022-151ADW

Object number (NORAD): 56598

Object ID (CCSDS): 56598

Country: PEOPLES REPUBLIC OF CHINA (PRC)

Current information (Y/N): Y

RCS size: SMALL

Orbital parameters

Period: 101.233 minutes

Inclination: 98.7824 deg

SMA: 7195.194 km

Apoapsis: 849.565 km

Periapsis: 784.553 km

RAAN: 1.1094 deg

Eccentricy: 0.00451772

Argument of periapsis: 159.5056 deg

Mean anomaly: 200.7947 deg

Mean motion: 14.22456526 rev/day

Mean motion (dot): 0.00002374 rev/day2

B* drag term: 0.0010734021 1/REarth

Two-line elements (TLE)

Creation date: Dec. 14, 2025, 3:07 a.m.

Reference frame: TEME

Reference center: EARTH

Epoch: Dec. 13, 2025, 12:06 p.m. UTC

TLE line 0: 0 CZ-6A DEB

TLE line 1: 1 56598U 22151ADW 25347.50420923 .00002374 00000-0 10734-2 0 9993

TLE line 2: 2 56598 98.7824 1.1094 0045177 159.5056 200.7947 14.22456526137055

Live tracking on map

Real-time ground track for satellite CZ-6A DEB.

In-orbit conjunctions

A list of the most updated potential collisions computed for object CZ-6A DEB.

Target Orbit TCA Probability of collision Miss distance Type
NOAA 16 DEB SSO 2025-09-07 07:53:48 0.000390272 55.0 (m) DEBRIS
THOR BURNER 2 R/B SSO 2025-02-06 04:02:42 0.000246549 281.0 (m) ROCKET BODY
DELTA 1 DEB SSO 2024-06-13 10:26:18 0.0002788645 117.0 (m) DEBRIS

Associated space launch

Chinese satellite reported for atmospheric/ocean/environmental/spatial parameter research purposes, details TBD.

CZ-6A DEB was lifted into orbit during the mission ‘Long March 6A | Yunhai 3’, on board a Long March 6A space rocket.

The launch took place on Nov. 11, 2022, 10:52 p.m. from Launch Complex 9A.

For more information about the launch, click the button.

Launch to space Long March 6A | Yunhai 3
Long March 6A | Yunhai 3

Agency: N/A

Status: Launch Successful

Launch date: Nov. 11, 2022, 10:52 p.m. UTC

Rocket: Long March 6A

Launch pad: Launch Complex 9A

Location: Taiyuan Satellite Launch Center, People's Republic of China

...

Latest news about this satellite

There are no fresh news available about this satellite. Check back as we update our databases every day.


Newsletter sign-up

Weekly statistics, charts and insights to help you stay on top of the space industry.